Vero Beach, FL

3:05 AM EDT on September 22, 2017 (GMT -0400)
Vero Beach Municipal

Weather History for KVRB - January, 2013

Change the Weather History Date:

Thursday, January 31, 2013

  Actual Average Record
Temperature  
Mean Temperature 60 °F 63 °F  
Max Temperature 71 °F 73 °F 88 °F (1991)
Min Temperature 49 °F 52 °F 26 °F (1966)
Degree Days  
Heating Degree Days 5 4  
Month to date heating degree days 35 153  
Since 1 July heating degree days 148 287  
Cooling Degree Days 0 2  
Month to date cooling degree days 134 61  
Year to date cooling degree days 134 61  
Growing Degree Days 10 (Base 50)    
Moisture  
Dew Point 52 °F    
Average Humidity 65    
Maximum Humidity 93    
Minimum Humidity 36    
Precipitation  
Precipitation 0.07 in 0.07 in 1.23 in (2004)
Month to date precipitation 1.52 2.50  
Year to date precipitation 1.52 2.50  
Sea Level Pressure  
Sea Level Pressure 30.07 in    
Wind  
Wind Speed 10 mph (NW)    
Max Wind Speed 23 mph    
Max Gust Speed 29 mph    
Visibility 8 miles    
Events Rain    
T = Trace of Precipitation, MM = Missing Value Source: NWS Daily Summary

Daily Weather History Graph

Daily Weather History Graph

Search for Another Location

Airport or City:

Trip Planner

Search our weather history database for the weather conditions in past years. The results will help you decide how hot, cold, wet, or windy it might be!

Date:

Astronomy

Jan. 31, 2013 Rise Set
Actual Time 7:08 AM EST 6:02 PM EST
Civil Twilight 6:44 AM EST 6:26 PM EST
Nautical Twilight 6:16 AM EST 6:54 PM EST
Astronomical Twilight 5:48 AM EST 7:22 PM EST
Moon 10:30 PM EST (1/31) 9:36 AM EST (1/31)
Length of Visible Light 11h 42m
Length of Day
10h 53m
Waning Gibbous, 80% of the Moon is Illuminated
Jan 31
Waning Gibbous
Feb 3
Last Quarter
Feb 10
New
Feb 17
First Quarter
Feb 25
Full

Hourly Weather History & Observations

Time (EST) Temp. Dew Point Humidity Pressure Visibility Wind Dir Wind Speed Gust Speed Precip Events Conditions
12:53 AM 68.0 °F 64.0 °F 87% 29.96 in 10.0 mi South 11.5 mph - N/A   Clear
1:53 AM 69.1 °F 66.0 °F 90% 29.96 in 10.0 mi SSW 11.5 mph 19.6 mph N/A   Clear
2:53 AM 69.1 °F 66.0 °F 90% 29.95 in 10.0 mi South 11.5 mph - N/A   Clear
3:53 AM 68.0 °F 66.0 °F 93% 29.94 in 10.0 mi South 10.4 mph - N/A   Scattered Clouds
4:53 AM 69.1 °F 66.9 °F 93% 29.94 in 10.0 mi SSW 9.2 mph - N/A   Mostly Cloudy
5:06 AM 69.8 °F 66.2 °F 88% 29.98 in 8.0 mi West 18.4 mph - 0.00 in Rain Light Rain
5:16 AM 66.2 °F 64.4 °F 94% 29.98 in 7.0 mi NW 15.0 mph 24.2 mph 0.01 in Rain Light Rain
5:23 AM 64.4 °F 62.6 °F 94% 29.99 in 7.0 mi WNW 15.0 mph - 0.02 in Rain Light Rain
5:31 AM 64.4 °F 62.6 °F 94% 30.00 in 6.0 mi WNW 11.5 mph - 0.02 in Rain Light Rain
5:53 AM 60.1 °F 57.0 °F 90% 30.01 in 7.0 mi WNW 16.1 mph 28.8 mph 0.04 in Rain Light Rain
6:08 AM 59.0 °F 55.4 °F 88% 30.02 in 10.0 mi WNW 11.5 mph 24.2 mph 0.00 in   Overcast
6:32 AM 59.0 °F 55.4 °F 88% 30.03 in 6.0 mi NW 16.1 mph - 0.00 in   Overcast
6:39 AM 57.2 °F 55.4 °F 94% 30.04 in 7.0 mi NW 11.5 mph 20.7 mph 0.00 in   Overcast
6:53 AM 57.9 °F 55.9 °F 93% 30.05 in 8.0 mi NW 13.8 mph - 0.00 in   Overcast
7:46 AM 55.4 °F 53.6 °F 94% 30.08 in 2.5 mi NNW 10.4 mph - 0.03 in Rain Light Rain
7:53 AM 55.9 °F 55.0 °F 97% 30.08 in 3.0 mi NW 8.1 mph - 0.03 in Rain Light Rain
7:57 AM 55.4 °F 55.4 °F 100% 30.09 in 5.0 mi NW 10.4 mph - 0.00 in Rain Light Rain
8:28 AM 55.4 °F 53.6 °F 94% 30.11 in 2.0 mi NW 11.5 mph - 0.00 in Rain Light Rain
8:47 AM 55.4 °F 53.6 °F 94% 30.11 in 8.0 mi NW 6.9 mph - 0.00 in   Overcast
8:53 AM 55.9 °F 54.0 °F 93% 30.10 in 10.0 mi NNW 5.8 mph - 0.00 in   Overcast
9:53 AM 57.9 °F 51.1 °F 78% 30.13 in 10.0 mi NW 6.9 mph - N/A   Overcast
10:53 AM 57.9 °F 50.0 °F 75% 30.13 in 9.0 mi WNW 5.8 mph - 0.00 in Rain Light Rain
11:53 AM 61.0 °F 54.0 °F 78% 30.13 in 10.0 mi NW 8.1 mph - 0.00 in   Mostly Cloudy
12:53 PM 66.9 °F 53.1 °F 61% 30.10 in 10.0 mi NNW 8.1 mph - N/A   Clear
1:53 PM 69.1 °F 48.0 °F 47% 30.09 in 10.0 mi WNW 9.2 mph - N/A   Clear
2:53 PM 70.0 °F 46.9 °F 44% 30.09 in 10.0 mi NW 12.7 mph - N/A   Clear
3:53 PM 69.1 °F 41.0 °F 36% 30.10 in 10.0 mi WNW 10.4 mph - N/A   Clear
4:53 PM 66.0 °F 39.0 °F 37% 30.11 in 10.0 mi WNW 13.8 mph - N/A   Clear
5:53 PM 61.0 °F 39.0 °F 44% 30.13 in 10.0 mi NW 6.9 mph - N/A   Clear
6:53 PM 55.9 °F 35.1 °F 45% 30.14 in 10.0 mi NW 8.1 mph - N/A   Clear
7:53 PM 54.0 °F 34.0 °F 47% 30.16 in 10.0 mi NW 8.1 mph - N/A   Clear
8:53 PM 54.0 °F 34.0 °F 47% 30.19 in 10.0 mi NNW 10.4 mph - N/A   Clear
9:53 PM 51.1 °F 34.0 °F 52% 30.19 in 10.0 mi NNW 8.1 mph - N/A   Clear
10:53 PM 50.0 °F 32.0 °F 50% 30.21 in 10.0 mi NW 5.8 mph - N/A   Clear
11:53 PM 51.1 °F 32.0 °F 48% 30.21 in 10.0 mi NW 9.2 mph - N/A   Clear